STARLINK-35809

Last updated on Sun Dec 07 2025 00:02:05 GMT+0000 (Coordinated Universal Time)

1 66373U 25254AB 25340.33126326 .00409778 00000+0 26479-2 0 9997 2 66373 53.1577 306.6786 0001519 304.8098 55.2779 15.74368048 4677
UTC large
Height (km)
Speed (km/s)
/
Latitude / Longitude
Inclination (degrees)
Orbital Period (minutes)
Azimuth
Elevation
Range (km)
Doppler Factor

Next 0 passes for location: London (51.5072 / 0.1276)

Sorry there are no passes over London.